Flag for Poland Weather past 2 weeks in Sosnowiec, Poland

Now
63 °F

Passing clouds.


Feels Like: 63 °F
Forecast: 61 / 93 °F
Wind: 2 mph from Northwest

Location: Katowice Airport

Current Time: Aug 29, 2015 at 5:28:43 AM

Latest Report: Aug 29, 2015 at 5:00 AM


Visibility: N/A

Pressure: 30.21 "Hg

Humidity: 100%

Dew point: 63 °F

Location of SosnowiecLocation

Historic Weather in Sosnowiec — Graph

°F

Sosnowiec temperature yesterday

Maximum temperature yesterday: 88 °F (at 2:00 PM)
Minimum temperature yesterday: 61 °F (at 2:00 AM)
Average temperature yesterday: 75 °F

Past Weeks' High & Low Weather Summary

 TemperatureHumidityPressure
High93 °F (Aug 15, 2:30 PM)100% (Aug 16, 1:30 PM)30.30 "Hg (Aug 16, 1:30 PM)
Low46 °F (Aug 22, 6:00 AM)25% (Aug 20, 3:00 PM)29.77 "Hg (Aug 15, 2:00 PM)
Average68 °F61%30.02 "Hg
* Reported Aug 14 4:00 AM — Aug 29 4:00 AM, Sosnowiec, Weather by CustomWeather, © 2015

Note: Actual official high and low records may vary slightly from our data, if they occured in-between our weather recording intervals... More about our weather records

Advertising

Sosnowiec weather history for previous 24 hours

 ConditionsComfort  
Time TempWeatherWind HumidityBarometerVisibility
4:00 AM
Sat, Aug 29
64 °FRain showers. Partly cloudy.2 mph94%30.21 "Hg5 mi
3:30 AM64 °FClear.2 mph94%30.21 "Hg10 mi
3:00 AM64 °FPassing clouds.3 mph94%30.18 "HgN/A
2:30 AM64 °FPassing clouds.3 mph94%30.18 "HgN/A
2:00 AM66 °FPassing clouds.7 mph88%30.18 "HgN/A
1:30 AM66 °FPassing clouds.6 mph88%30.18 "HgN/A
1:00 AM68 °FPassing clouds.7 mph83%30.18 "HgN/A
12:30 AM68 °FPassing clouds.3 mph83%30.15 "HgN/A
12:00 AM68 °FSprinkles. Passing clouds.5 mph83%30.15 "HgN/A
11:30 PM
Fri, Aug 28
72 °FPassing clouds.3 mph69%30.15 "HgN/A
11:00 PM70 °FPassing clouds.3 mph73%30.15 "HgN/A
10:30 PM72 °FClear.1 mph69%30.12 "Hg10 mi
10:00 PM73 °FClear.2 mph65%30.12 "Hg10 mi
9:30 PM73 °FPassing clouds.3 mph65%30.12 "HgN/A
9:00 PM73 °FPassing clouds.3 mph65%30.09 "HgN/A
8:30 PM75 °FPassing clouds.3 mph61%30.09 "HgN/A
8:00 PM75 °FPassing clouds.5 mph61%30.09 "HgN/A
7:30 PM77 °FPassing clouds.3 mph57%30.09 "HgN/A
7:00 PM79 °FPassing clouds.5 mph54%30.07 "HgN/A
6:30 PM84 °FSunny.10 mph43%30.07 "Hg10 mi
6:00 PM84 °FSunny.15 mph40%30.07 "Hg10 mi
5:30 PM84 °FSunny.16 mph40%30.07 "Hg10 mi
5:00 PM86 °FSunny.20 mph38%30.04 "Hg10 mi
4:30 PM86 °FSunny.15 mph40%30.04 "Hg10 mi
4:00 PM88 °FSunny.21 mph35%30.04 "Hg10 mi
3:30 PM86 °FSunny.16 mph38%30.01 "Hg10 mi
3:00 PM88 °FPassing clouds.16 mph38%30.01 "HgN/A
2:30 PM88 °FSunny.15 mph38%30.01 "Hg10 mi
2:00 PM88 °FPassing clouds.12 mph38%30.01 "HgN/A
1:30 PM86 °FPassing clouds.13 mph40%30.01 "HgN/A
1:00 PM84 °FSunny.15 mph43%30.04 "Hg10 mi
12:30 PM82 °FSunny.15 mph45%30.01 "Hg10 mi
12:00 PM82 °FSunny.15 mph48%30.01 "Hg10 mi
11:30 AM81 °FSunny.18 mph51%30.01 "Hg10 mi
11:00 AM81 °FSunny.18 mph48%30.01 "Hg10 mi
10:30 AM79 °FSunny.17 mph54%30.01 "Hg10 mi
10:00 AM77 °FSunny.12 mph57%30.01 "Hg10 mi
9:30 AM75 °FSunny.12 mph61%30.01 "Hg10 mi
9:00 AM75 °FPassing clouds.10 mph61%29.98 "HgN/A
8:30 AM73 °FPassing clouds.9 mph65%29.98 "HgN/A
8:00 AM68 °FSunny.6 mph78%29.98 "Hg10 mi
7:30 AM64 °FSunny.8 mph83%29.98 "Hg10 mi
7:00 AM64 °FClear.7 mph83%29.98 "Hg5 mi
6:30 AM63 °FFog.8 mph88%29.98 "HgN/A
6:00 AM63 °FFog.7 mph88%29.98 "HgN/A
5:00 AM63 °FClear.5 mph83%29.98 "Hg10 mi
Weather by CustomWeather, © 2015

See weather overviewHow to use our weather pages